Location: Oriwa
(40.7500°S, 175.3333°E)
Time: 14:15:51
(UTC+00:00)

Cosmos 2219 - Pass Details

Date: 03 February 2023
Orbit: 834 x 858 km, 71.1° (Epoch: 31 March)

Event Time Altitude Azimuth Distance (km) Brightness Sun altitude
Rises 16:10:18 0° 199° (SSW) 3,469 6.6 -13.7°
Reaches altitude 10° 16:12:53 10° 193° (SSW) 2,527 6.0 -13.3°
Maximum altitude 16:18:30 48° 119° (ESE) 1,126 4.4 -12.5°
Drops below altitude 10° 16:24:02 10° 45° (NE) 2,496 5.8 -11.6°
Sets 16:26:34 0° 39° (NE) 3,423 6.4 -11.2°
